Regional Weather Roundup
Issued by NWS

Home | Current Version | Previous Version | Graphics & Text | Print | Product List | Glossary On
Versions: 1 2 3 4 5 6 7 8 9 10 11 12 13 14 15 16 17 18 19 20 21 22 23 24 25 26 27 28 29 30 31 32 33 34 35 36 37 38 39 40 41 42 43 44 45 46 47 48 49 50
000
ASUS45 KPSR 221100
RWRAZ

PRELIMINARY ARIZONA REGIONAL HOURLY WEATHER ROUNDUP
NATIONAL WEATHER SERVICE PHOENIX AZ
400 AM MST FRI AUG 22 2014

NOTE: FAIR INDICATES FEW OR NO CLOUDS BELOW 12,000 FEET WITH NO
SIGNIFICANT WEATHER AND/OR OBSTRUCTIONS TO VISIBILITY.

AZZ001>003-036-221200-
NORTHWEST ARIZONA

CITY           SKY/WX    TMP DP  RH WIND       PRES   REMARKS
KINGMAN        CLEAR     60  56  86 CALM      30.06S
$$

AZZ004>008-015-016-018-221200-
NORTH CENTRAL ARIZONA

CITY           SKY/WX    TMP DP  RH WIND       PRES   REMARKS
GRAND CANYON     N/A    N/A N/A N/A MISG        N/A
WILLIAMS       CLOUDY    54  50  87 SE9       30.29F
PRESCOTT       CLOUDY    60  56  86 SE5       30.15F
FLAGSTAFF      CLOUDY    53  51  93 NW3       30.26F
PAYSON         MOCLDY    59  55  88 CALM      30.18S
PAGE           PTCLDY    65  57  75 CALM      30.10F
$$

AZZ009>014-017-221200-
NORTHEAST ARIZONA

CITY           SKY/WX    TMP DP  RH WIND       PRES   REMARKS
WINSLOW        NOT AVBL
SAINT JOHNS    MOCLDY    58  57  97 E3        30.19S
WINDOW ROCK    CLOUDY    56  52  86 CALM      30.25S
$$

AZZ023-221200-
GREATER PHOENIX AREA

CITY           SKY/WX    TMP DP  RH WIND       PRES   REMARKS
PHOENIX        MOCLDY    73  65  75 E3        29.94F
DEER VALLEY    CLEAR     70  66  87 CALM      29.96S
SCOTTSDALE     PTCLDY    71  66  84 CALM      29.98S
MESA-GATEWAY   CLEAR     70  63  78 NW3       29.99S
$$

AZZ027-028-221200-
SOUTHWEST MARICOPA COUNTY AND PINAL COUNTY

CITY           SKY/WX    TMP DP  RH WIND       PRES   REMARKS
CASA GRANDE    CLEAR     68  61  77 CALM      29.97S
$$

AZZ503-504-507>509-221200-
SOUTHEAST ARIZONA

CITY           SKY/WX    TMP DP  RH WIND       PRES   REMARKS
TUCSON         MOCLDY    70  62  76 CALM      30.05S
NOGALES        PTCLDY    64  62  93 E5        30.10S
SIERRA VISTA   MOCLDY    64  61  88 SW3       30.15S
SAFFORD        CLOUDY    72  60  66 W12       30.04R
$$

AZZ020-021-025-026-031-221200-
SOUTHWEST ARIZONA

CITY           SKY/WX    TMP DP  RH WIND       PRES   REMARKS
YUMA           CLEAR     73  64  73 NE5       29.90F
$$

CAZ031-033-041-043-047-048-061-221200-
SOUTHERN CALIFORNIA

CITY           SKY/WX    TMP DP  RH WIND       PRES   REMARKS
DOWNTOWN L.A.  CLEAR     67  62  84 CALM      29.93F
L.A. AIRPORT   PTCLDY    67  63  87 NW5       29.94F
SAN DIEGO      PTCLDY    70  63  78 CALM      29.95F
BURBANK        CLEAR     68  60  75 E3        29.94F
ONTARIO        CLEAR     69  61  75 W3        29.95F
RIVERSIDE      CLEAR     69  61  75 W3        29.95F
PALM SPRINGS   CLEAR     76  60  57 E8        29.92R
EL CENTRO NAS  CLEAR     70  66  87 SE5       29.89S
IMPERIAL       CLEAR     72  66  81 SE5       29.88F
BLYTHE         CLEAR     69  67  93 CALM      29.92S
$$

NVZ020-UTZ003-221200-
SOUTHERN NEVADA-UTAH

CITY           SKY/WX    TMP DP  RH WIND       PRES   REMARKS
LAS VEGAS      NOT AVBL
SALT LAKE CITY MOCLDY    69  48  47 SE8       29.97F
$$

NMZ009-TXZ055-221200-
NEW MEXICO-WEST TEXAS

CITY           SKY/WX    TMP DP  RH WIND       PRES   REMARKS
ALBUQUERQUE    MOCLDY    71  46  40 NW8       30.15S
EL PASO        RAIN      65  62  90 S3        30.14R
$$


........................KEY........................
SKY/WX - SKY CONDITION/WEATHER
TMP    - TEMPERATURE IN FAHRENHEIT
DP     - DEW POINT IN FAHRENHEIT
RH     - RELATIVE HUMIDITY IN PERCENT
WIND   - DIRECTION AND SPEED IN MILES PER HOUR (MPH)
VRB    - VARIABLE WIND DIRECTION
PRES   - MEAN SEA LEVEL PRESSURE IN INCHES OF MERCURY
         F - FALLING PRESSURE   R - RISING PRESSURE
         S - STEADY PRESSURE
VSB    - VISIBILITY IN MILES
HX     - HEAT INDEX IN FAHRENHEIT
WCI    - WIND CHILL INDEX IN FAHRENHEIT
TC     - TEMPERATURE IN CELSIUS WHICH IS ALSO KNOWN AS
         TEMPERATURE IN CENTIGRADE
AFB    - AIR FORCE BASE
         LUKE AFB IS LUKE AIR FORCE BASE
         DAVIS-MONTHAN IS DAVIS-MONTHAN AIR FORCE BASE
NAS    - NAVAL AIR STATION
         EL CENTRO NAS IS EL CENTRO NAVAL AIR STATION
N/A    - NOT AVAILABLE



USA.gov is the U.S. government's official web portal to all federal, state and local government web resources and services.